UAL40 KEWR-LIRF

Flight info

Callsign UAL40
Flight time N/A
Altitude 33000
Route GREKI DCT JUDDS DCT MARTN DCT CBIRD DCT MIILS/N0482F350 N739B LOMSI/M084F350 NATY BEXET/N0486F370 DCT OSGAR DCT DIRUM DCT MORAG DCT NUCHU DCT BOGNA UL612 OGULO DCT OKASI DCT OKEKO DCT MOU DCT MADIV DCT MOKIP DCT TUFTA DCT KOGAS DCT MEDAM DCT NITAM DCT MOGBO DCT ELB/N0484F380 DCT ELKAP
Aircraft B77W/H-SDE1E2E3FGHIJ2J3J4J5M1RWXY/LB1D1

Departure

Time N/A
Airport Newark Liberty International Airport (KEWR)

Arrival

Time 2026-05-01 08:29
Airport Rome–Fiumicino Leonardo da Vinci International Airport (LIRF)
Time Latitude Longitude Altitude Speed Heading
2026-05-01 07:23 46.02928 6.02472 37296 ft 474 kts 131°
2026-05-01 07:24 45.96491 6.13177 37294 ft 475 kts 131°
2026-05-01 07:24 45.92158 6.20357 37294 ft 476 kts 131°
2026-05-01 07:25 45.87803 6.27559 37293 ft 478 kts 131°
2026-05-01 07:25 45.83426 6.34778 37293 ft 480 kts 130°
2026-05-01 07:26 45.78632 6.41432 37277 ft 481 kts 142°
2026-05-01 07:26 45.73176 6.46981 37287 ft 481 kts 145°
2026-05-01 07:27 45.67718 6.52432 37288 ft 482 kts 144°
2026-05-01 07:27 45.62230 6.57967 37292 ft 483 kts 144°
2026-05-01 07:28 45.56747 6.63518 37285 ft 483 kts 145°
2026-05-01 07:28 45.51260 6.69063 37300 ft 484 kts 144°
2026-05-01 07:29 45.45795 6.74569 37309 ft 485 kts 144°
2026-05-01 07:29 45.40283 6.80106 37311 ft 485 kts 144°
2026-05-01 07:30 45.34757 6.85646 37309 ft 486 kts 145°
2026-05-01 07:30 45.29223 6.91180 37310 ft 486 kts 145°
2026-05-01 07:31 45.23961 6.97176 37343 ft 486 kts 135°
2026-05-01 07:32 45.11948 7.13981 37351 ft 488 kts 133°
2026-05-01 07:33 45.05772 7.25420 37349 ft 489 kts 123°
2026-05-01 07:33 44.99946 7.37308 37366 ft 491 kts 124°
2026-05-01 07:34 44.93115 7.48096 37367 ft 492 kts 135°
2026-05-01 07:35 44.88242 7.54788 37367 ft 493 kts 135°
2026-05-01 07:35 44.83346 7.61549 37383 ft 493 kts 135°
2026-05-01 07:36 44.78451 7.68344 37371 ft 494 kts 134°
2026-05-01 07:36 44.73557 7.75140 37371 ft 495 kts 134°
2026-05-01 07:37 44.66185 7.85342 37368 ft 496 kts 135°
2026-05-01 07:37 44.61254 7.92141 37346 ft 498 kts 135°
2026-05-01 07:38 44.56312 7.98938 37362 ft 497 kts 134°
2026-05-01 07:39 44.48911 8.09084 37360 ft 499 kts 134°
2026-05-01 07:39 44.41455 8.19267 37358 ft 499 kts 134°
2026-05-01 07:40 44.36479 8.26043 37344 ft 499 kts 134°
2026-05-01 07:40 44.31499 8.32806 37344 ft 499 kts 134°
2026-05-01 07:41 44.26508 8.39569 37330 ft 500 kts 134°
2026-05-01 07:42 44.19041 8.49654 37331 ft 501 kts 134°
2026-05-01 07:42 44.14029 8.56399 37327 ft 501 kts 134°
2026-05-01 07:43 44.09008 8.63143 37332 ft 502 kts 134°
2026-05-01 07:43 44.01446 8.73268 37335 ft 505 kts 134°
2026-05-01 07:44 43.91311 8.86779 37322 ft 508 kts 134°
2026-05-01 07:45 43.86199 8.93568 37312 ft 510 kts 134°
2026-05-01 07:45 43.81069 9.00364 37319 ft 511 kts 134°
2026-05-01 07:46 43.75930 9.07154 37320 ft 511 kts 134°
2026-05-01 07:47 43.68188 9.17355 37322 ft 513 kts 134°
2026-05-01 07:47 43.63011 9.24151 37314 ft 514 kts 134°
2026-05-01 07:48 43.55250 9.34310 37323 ft 515 kts 134°
2026-05-01 07:48 43.50045 9.41103 37320 ft 515 kts 134°
2026-05-01 07:49 43.42222 9.51281 37315 ft 517 kts 134°
2026-05-01 07:50 43.36978 9.58083 37326 ft 520 kts 134°
2026-05-01 07:50 43.29089 9.68281 37325 ft 523 kts 134°
2026-05-01 07:51 43.23781 9.75123 37324 ft 524 kts 134°
2026-05-01 07:52 43.15786 9.85397 37352 ft 529 kts 134°
2026-05-01 07:52 43.10391 9.92306 37315 ft 529 kts 134°
2026-05-01 07:53 43.02422 10.02476 37317 ft 523 kts 134°
2026-05-01 07:53 42.97106 10.09244 37313 ft 523 kts 135°
2026-05-01 07:55 42.83732 10.26197 37315 ft 528 kts 135°
2026-05-01 07:56 42.72897 10.45509 37228 ft 516 kts 98°
2026-05-01 07:56 42.72418 10.55121 36769 ft 509 kts 85°
2026-05-01 07:57 42.72310 10.59931 36364 ft 509 kts 88°
2026-05-01 07:57 42.70243 10.69208 34984 ft 526 kts 119°
2026-05-01 07:58 42.66216 10.77472 33412 ft 521 kts 120°
2026-05-01 07:58 42.62271 10.85825 31658 ft 525 kts 119°
2026-05-01 07:59 42.58439 10.94149 29972 ft 521 kts 118°
2026-05-01 07:59 42.54688 11.02298 28075 ft 495 kts 118°
2026-05-01 08:00 42.47523 11.17783 24881 ft 477 kts 118°
2026-05-01 08:01 42.43388 11.29596 22631 ft 444 kts 91°
2026-05-01 08:01 42.43065 11.33720 22051 ft 440 kts 91°
2026-05-01 08:01 42.42674 11.37813 21462 ft 436 kts 92°
2026-05-01 08:02 42.41784 11.45793 20404 ft 426 kts 93°
2026-05-01 08:02 42.41340 11.49608 19852 ft 396 kts 92°
2026-05-01 08:03 42.40501 11.56446 19207 ft 345 kts 98°
2026-05-01 08:03 42.39458 11.59410 19078 ft 358 kts 122°
2026-05-01 08:03 42.35883 11.64185 18825 ft 364 kts 132°
2026-05-01 08:04 42.32152 11.68852 18561 ft 366 kts 131°
2026-05-01 08:04 42.28484 11.73488 18181 ft 357 kts 131°
2026-05-01 08:05 42.24929 11.78015 17799 ft 351 kts 131°
2026-05-01 08:05 42.23158 11.80273 17602 ft 350 kts 131°
2026-05-01 08:05 42.21396 11.82519 17414 ft 348 kts 131°
2026-05-01 08:06 42.17891 11.86985 17073 ft 346 kts 131°
2026-05-01 08:06 42.14399 11.91421 16705 ft 346 kts 131°
2026-05-01 08:07 42.11879 11.96593 16190 ft 326 kts 107°
2026-05-01 08:07 42.09967 12.02201 15710 ft 331 kts 108°
2026-05-01 08:08 42.08988 12.05009 15469 ft 330 kts 109°
2026-05-01 08:08 42.07051 12.10492 15014 ft 322 kts 109°
2026-05-01 08:09 42.05142 12.15866 14575 ft 316 kts 109°
2026-05-01 08:09 42.04197 12.18526 14353 ft 314 kts 109°
2026-05-01 08:09 42.03255 12.21171 14074 ft 313 kts 109°
2026-05-01 08:10 42.01384 12.26424 13601 ft 311 kts 110°
2026-05-01 08:10 41.99534 12.31592 13104 ft 302 kts 111°
2026-05-01 08:11 41.96513 12.35263 12579 ft 302 kts 159°
2026-05-01 08:11 41.92469 12.36905 12118 ft 306 kts 161°
2026-05-01 08:12 41.88417 12.38564 11618 ft 301 kts 161°
2026-05-01 08:12 41.86456 12.39376 11360 ft 297 kts 161°
2026-05-01 08:12 41.82595 12.40980 10875 ft 282 kts 161°
2026-05-01 08:13 41.80735 12.41755 10664 ft 279 kts 161°
2026-05-01 08:13 41.78881 12.42529 10441 ft 278 kts 161°
2026-05-01 08:13 41.75223 12.44055 10041 ft 273 kts 161°
2026-05-01 08:14 41.73415 12.44808 9829 ft 271 kts 161°
2026-05-01 08:14 41.71619 12.45556 9621 ft 269 kts 161°
2026-05-01 08:14 41.69838 12.46296 9405 ft 267 kts 161°
2026-05-01 08:14 41.68064 12.47032 9192 ft 265 kts 161°
2026-05-01 08:15 41.66307 12.47761 8965 ft 264 kts 161°
2026-05-01 08:15 41.62809 12.49204 8505 ft 262 kts 161°
2026-05-01 08:15 41.61078 12.49917 8277 ft 261 kts 161°
2026-05-01 08:16 41.59358 12.50625 7969 ft 264 kts 161°
2026-05-01 08:16 41.57580 12.51244 7594 ft 263 kts 176°
2026-05-01 08:16 41.55836 12.50752 7208 ft 255 kts 214°
2026-05-01 08:16 41.54686 12.49099 6743 ft 240 kts 248°
2026-05-01 08:17 41.54174 12.47005 6270 ft 238 kts 261°
2026-05-01 08:17 41.54046 12.44806 5768 ft 240 kts 275°
2026-05-01 08:17 41.54176 12.42582 5430 ft 238 kts 277°
2026-05-01 08:17 41.54414 12.40460 5224 ft 222 kts 288°
2026-05-01 08:18 41.54626 12.38441 5200 ft 223 kts 271°
2026-05-01 08:18 41.55714 12.34733 5210 ft 226 kts 333°
2026-05-01 08:19 41.58604 12.35255 5211 ft 225 kts 32°
2026-05-01 08:19 41.59797 12.36643 5193 ft 232 kts 50°
2026-05-01 08:19 41.60513 12.38579 5187 ft 238 kts 78°
2026-05-01 08:19 41.60479 12.40776 5213 ft 237 kts 92°
2026-05-01 08:20 41.60335 12.42991 5219 ft 241 kts 92°
2026-05-01 08:20 41.60211 12.45230 5257 ft 242 kts 92°
2026-05-01 08:20 41.60083 12.47481 5225 ft 243 kts 94°
2026-05-01 08:20 41.59519 12.49581 5200 ft 244 kts 126°
2026-05-01 08:21 41.58178 12.50932 5209 ft 245 kts 160°
2026-05-01 08:21 41.56507 12.51116 5204 ft 243 kts 193°
2026-05-01 08:21 41.55033 12.50110 5209 ft 239 kts 226°
2026-05-01 08:21 41.54183 12.48263 5205 ft 233 kts 255°
2026-05-01 08:22 41.54006 12.46136 5206 ft 232 kts 274°
2026-05-01 08:22 41.54123 12.43998 5112 ft 236 kts 277°
2026-05-01 08:22 41.54268 12.41795 4793 ft 237 kts 277°
2026-05-01 08:22 41.54706 12.39795 4452 ft 217 kts 305°
2026-05-01 08:23 41.55755 12.38394 4233 ft 220 kts 325°
2026-05-01 08:23 41.57144 12.37495 3998 ft 224 kts 341°
2026-05-01 08:23 41.58627 12.36887 3769 ft 222 kts 343°
2026-05-01 08:23 41.60092 12.36314 3543 ft 217 kts 343°
2026-05-01 08:24 41.61524 12.35743 3298 ft 212 kts 343°
2026-05-01 08:24 41.62922 12.35175 3055 ft 207 kts 343°
2026-05-01 08:24 41.64263 12.34622 2902 ft 196 kts 344°
2026-05-01 08:24 41.65545 12.34092 2659 ft 189 kts 343°
2026-05-01 08:25 41.66772 12.33582 2493 ft 180 kts 344°
2026-05-01 08:25 41.67976 12.33082 2348 ft 182 kts 345°
2026-05-01 08:25 41.69147 12.32594 2210 ft 171 kts 346°
2026-05-01 08:25 41.70241 12.32140 2103 ft 160 kts 345°
2026-05-01 08:26 41.71256 12.31717 1948 ft 146 kts 345°
2026-05-01 08:26 41.72204 12.31321 1844 ft 144 kts 346°
2026-05-01 08:26 41.73166 12.30922 1714 ft 144 kts 346°
2026-05-01 08:26 41.74104 12.30529 1560 ft 137 kts 347°
2026-05-01 08:27 41.75001 12.30158 1381 ft 134 kts 347°
2026-05-01 08:27 41.75888 12.29790 1248 ft 131 kts 348°
2026-05-01 08:27 41.76731 12.29428 1020 ft 127 kts 347°
2026-05-01 08:27 41.77580 12.29050 924 ft 130 kts 344°
2026-05-01 08:28 41.78453 12.28663 801 ft 136 kts 349°
2026-05-01 08:28 41.79376 12.28344 637 ft 134 kts 348°
2026-05-01 08:28 41.80220 12.27992 374 ft 122 kts 348°
2026-05-01 08:28 41.81002 12.27661 115 ft 116 kts 347°
2026-05-01 08:29 41.81741 12.27351 25 ft 104 kts 347°
2026-05-01 08:29 41.82357 12.27106 15 ft 81 kts 340°
2026-05-01 08:29 41.82828 12.26893 27 ft 61 kts 342°
2026-05-01 08:29 41.83153 12.26755 18 ft 44 kts 342°
2026-05-01 08:30 41.83411 12.26648 17 ft 30 kts 342°
2026-05-01 08:30 41.83607 12.26552 20 ft 24 kts 334°
2026-05-01 08:30 41.83732 12.26447 20 ft 16 kts 322°
2026-05-01 08:30 41.83812 12.26341 22 ft 16 kts 312°
2026-05-01 08:31 41.83878 12.26234 18 ft 14 kts 295°
2026-05-01 08:31 41.83846 12.26158 28 ft 9 kts 189°
2026-05-01 08:31 41.83783 12.26166 21 ft 9 kts 165°
2026-05-01 08:31 41.83685 12.26208 26 ft 21 kts 162°
2026-05-01 08:32 41.83538 12.26271 26 ft 23 kts 163°
2026-05-01 08:32 41.83389 12.26336 25 ft 23 kts 163°
2026-05-01 08:32 41.83233 12.26398 20 ft 24 kts 163°
2026-05-01 08:32 41.83075 12.26464 19 ft 24 kts 162°
2026-05-01 08:33 41.82917 12.26531 18 ft 24 kts 162°
2026-05-01 08:33 41.82759 12.26595 19 ft 24 kts 163°
2026-05-01 08:33 41.82601 12.26662 23 ft 24 kts 163°
2026-05-01 08:33 41.82441 12.26729 18 ft 25 kts 163°
2026-05-01 08:34 41.82271 12.26799 16 ft 26 kts 162°
2026-05-01 08:34 41.82100 12.26871 15 ft 26 kts 162°
2026-05-01 08:34 41.81930 12.26943 17 ft 26 kts 162°
2026-05-01 08:34 41.81759 12.27015 20 ft 26 kts 163°
2026-05-01 08:35 41.81591 12.27085 26 ft 26 kts 162°
2026-05-01 08:35 41.81420 12.27158 25 ft 26 kts 164°
2026-05-01 08:35 41.81245 12.27231 19 ft 27 kts 162°
2026-05-01 08:35 41.81087 12.27281 17 ft 19 kts 194°
2026-05-01 08:36 41.80976 12.27209 15 ft 20 kts 172°
2026-05-01 08:36 41.80838 12.27204 14 ft 20 kts 197°
2026-05-01 08:36 41.80755 12.27060 14 ft 20 kts 248°
2026-05-01 08:36 41.80705 12.26879 14 ft 21 kts 249°
2026-05-01 08:37 41.80654 12.26698 17 ft 21 kts 250°
2026-05-01 08:37 41.80605 12.26517 19 ft 21 kts 250°
2026-05-01 08:37 41.80555 12.26336 21 ft 21 kts 250°
2026-05-01 08:37 41.80504 12.26151 17 ft 21 kts 250°
2026-05-01 08:38 41.80453 12.25964 18 ft 21 kts 250°
2026-05-01 08:38 41.80400 12.25777 18 ft 21 kts 250°
2026-05-01 08:38 41.80349 12.25589 20 ft 21 kts 250°
2026-05-01 08:38 41.80297 12.25402 22 ft 21 kts 249°
2026-05-01 08:39 41.80245 12.25215 25 ft 21 kts 250°
2026-05-01 08:39 41.80206 12.25023 22 ft 21 kts 269°
2026-05-01 08:39 41.80191 12.24823 19 ft 23 kts 254°
2026-05-01 08:39 41.80133 12.24606 15 ft 26 kts 249°
2026-05-01 08:40 41.80034 12.24258 15 ft 10 kts 237°
2026-05-01 08:40 41.79973 12.24235 16 ft 10 kts 170°
2026-05-01 08:40 41.79887 12.24270 16 ft 17 kts 159°
2026-05-01 08:41 41.79786 12.24355 18 ft 17 kts 152°
2026-05-01 08:41 41.79675 12.24368 18 ft 17 kts 222°
2026-05-01 08:41 41.79652 12.24309 19 ft 0 kts 248°